EW5093 Weather Reports


time (UTC)temp
C
wind
direction
speed
KPH
gust
KPH
rain 1hr
cm
rain 24hr
cm
rain mn
cm
humidity
%
barometer
mb
20260507110040 11 336 1.6 8.0 0.00 0.00 0.00 73 1020.0
20260507105511 11 0 0.0 6.4 0.00 0.00 0.00 73 1019.9
20260507105012 11 0 0.0 8.0 0.00 0.00 0.00 73 1020.0
20260507104530 11 350 0.0 12.9 0.00 0.00 0.00 73 1020.0
20260507104011 12 350 1.6 12.9 0.00 0.00 0.00 72 1020.1
20260507103510 12 0 0.0 12.9 0.00 0.00 0.00 72 1020.1
20260507103030 12 5 1.6 6.4 0.00 0.00 0.00 72 1020.2
20260507102513 12 0 1.6 6.4 0.00 0.00 0.00 72 1020.2
20260507102013 12 0 1.6 6.4 0.00 0.00 0.00 72 1020.2
20260507101540 12 286 1.6 8.0 0.00 0.00 0.00 72 1020.2
20260507101014 12 348 1.6 8.0 0.00 0.00 0.00 72 1020.3
20260507100510 12 340 1.6 9.7 0.00 0.00 0.00 71 1020.3
20260507100035 12 318 1.6 9.7 0.00 0.00 0.00 71 1020.3
20260507095511 12 355 1.6 4.8 0.00 0.00 0.00 71 1020.4
20260507095015 12 333 1.6 4.8 0.00 0.00 0.00 71 1020.4
20260507094531 12 339 0.0 4.8 0.00 0.00 0.00 71 1020.5
20260507094010 12 333 0.0 6.4 0.00 0.00 0.00 71 1020.4
20260507093512 12 0 1.6 14.5 0.00 0.00 0.00 71 1020.5
20260507093030 12 0 1.6 14.5 0.00 0.00 0.00 70 1020.6
20260507092515 12 302 1.6 9.7 0.00 0.00 0.00 70 1020.7
20260507092014 12 333 3.2 9.7 0.00 0.00 0.00 70 1020.6
20260507091538 12 335 3.2 8.0 0.00 0.00 0.00 70 1020.6
20260507091015 12 286 3.2 8.0 0.00 0.00 0.00 70 1020.7
20260507090515 12 305 1.6 9.7 0.00 0.00 0.00 70 1020.7
20260507090039 12 5 1.6 9.7 0.00 0.00 0.00 70 1020.7
20260507085513 12 9 1.6 9.7 0.00 0.00 0.00 70 1020.8
20260507085015 12 335 1.6 6.4 0.00 0.00 0.00 70 1020.8
20260507084537 12 278 0.0 8.0 0.00 0.00 0.00 70 1020.8
20260507084012 12 335 0.0 8.0 0.00 0.00 0.00 71 1020.7
20260507083515 12 0 0.0 6.4 0.00 0.00 0.00 71 1020.7
20260507083037 12 20 0.0 6.4 0.00 0.00 0.00 71 1020.7
20260507082514 12 0 1.6 6.4 0.00 0.00 0.00 71 1020.7
20260507082016 12 301 1.6 6.4 0.00 0.00 0.00 72 1020.8
20260507081532 12 306 0.0 4.8 0.00 0.00 0.00 72 1020.8
20260507081015 12 0 1.6 9.7 0.00 0.00 0.00 72 1020.8
20260507080516 12 355 0.0 9.7 0.00 0.00 0.00 73 1020.7
20260507080031 12 286 0.0 9.7 0.00 0.00 0.00 73 1020.7
20260507075515 12 281 1.6 9.7 0.00 0.00 0.00 73 1020.7
20260507075015 12 5 1.6 14.5 0.00 0.00 0.00 72 1020.7
20260507074542 12 294 0.0 14.5 0.00 0.00 0.00 72 1020.8
20260507074015 12 329 3.2 12.9 0.00 0.00 0.00 72 1020.7
20260507073514 12 80 3.2 12.9 0.00 0.00 0.00 73 1020.7
20260507073032 12 0 1.6 9.7 0.00 0.00 0.00 73 1020.7
20260507072513 12 352 1.6 6.4 0.00 0.00 0.00 73 1020.6
20260507072012 12 317 1.6 6.4 0.00 0.00 0.00 73 1020.6
20260507071529 12 0 0.0 6.4 0.00 0.00 0.00 73 1020.6
20260507071014 12 349 0.0 6.4 0.00 0.00 0.00 73 1020.6
20260507070513 12 311 0.0 11.3 0.00 0.00 0.00 73 1020.5
20260507070030 12 0 1.6 11.3 0.00 0.00 0.00 73 1020.5
20260507065517 12 0 0.0 6.4 0.00 0.00 0.00 73 1020.5
20260507065013 12 275 1.6 6.4 0.00 0.00 0.00 73 1020.5
20260507064537 12 321 0.0 9.7 0.00 0.00 0.00 73 1020.5
20260507064016 12 0 0.0 9.7 0.00 0.00 0.00 72 1020.6
20260507063515 12 5 1.6 9.7 0.00 0.00 0.00 72 1020.6
20260507063035 12 0 1.6 19.3 0.00 0.00 0.00 72 1020.5
20260507062513 12 311 1.6 19.3 0.00 0.00 0.00 72 1020.6
20260507062014 12 313 3.2 16.1 0.00 0.00 0.00 73 1020.6
20260507061530 12 287 6.4 16.1 0.00 0.00 0.00 73 1020.6
20260507061009 12 329 1.6 16.1 0.00 0.00 0.00 74 1020.7
20260507060512 12 287 3.2 14.5 0.00 0.00 0.00 74 1020.7
20260507060032 13 46 1.6 14.5 0.00 0.00 0.00 74 1020.6
20260507055511 13 355 1.6 12.9 0.00 0.00 0.00 74 1020.7
20260507055012 13 336 1.6 12.9 0.00 0.00 0.00 75 1020.7
20260507054532 13 327 0.0 8.0 0.00 0.00 0.00 75 1020.7
20260507054016 13 329 1.6 8.0 0.00 0.00 0.00 75 1020.7
20260507053513 13 311 1.6 8.0 0.00 0.00 0.00 75 1020.7
20260507053032 13 296 1.6 16.1 0.00 0.00 0.00 75 1020.7
20260507052513 13 329 0.0 16.1 0.00 0.00 0.00 76 1020.7
20260507052013 13 22 3.2 14.5 0.00 0.00 0.00 75 1020.7
20260507051539 13 55 3.2 17.7 0.00 0.00 0.00 76 1020.7
20260507051012 13 355 4.8 17.7 0.00 0.00 0.00 75 1020.7
20260507050511 13 350 1.6 9.7 0.00 0.00 0.00 75 1020.7
20260507050028 13 302 3.2 9.7 0.00 0.00 0.00 75 1020.7
20260507045513 13 360 1.6 16.1 0.00 0.00 0.00 75 1020.7
20260507045013 13 344 3.2 16.1 0.00 0.00 0.00 75 1020.7
20260507044530 13 323 3.2 14.5 0.00 0.00 0.00 74 1020.7
20260507044013 13 302 3.2 12.9 0.00 0.00 0.00 74 1020.8
20260507043514 13 5 3.2 14.5 0.00 0.00 0.00 74 1020.7
20260507043032 13 303 1.6 19.3 0.00 0.00 0.00 74 1020.7
20260507042513 13 348 3.2 19.3 0.00 0.00 0.00 74 1020.7
20260507042013 13 307 3.2 17.7 0.00 0.00 0.00 74 1020.5
20260507041532 13 34 4.8 17.7 0.00 0.00 0.00 73 1020.5
20260507041013 14 321 4.8 19.3 0.00 0.00 0.00 73 1020.5
20260507040514 14 9 4.8 19.3 0.00 0.00 0.00 73 1020.5
20260507040029 14 17 3.2 14.5 0.00 0.00 0.00 72 1020.5
20260507035513 14 273 3.2 14.5 0.00 0.00 0.00 72 1020.4
20260507035011 14 351 1.6 14.5 0.00 0.00 0.00 72 1020.4
20260507034550 14 332 3.2 20.9 0.00 0.00 0.00 72 1020.3
20260507034013 15 320 4.8 20.9 0.00 0.00 0.00 71 1020.1
20260507033516 15 344 4.8 16.1 0.00 0.00 0.00 71 1020.1
20260507033033 15 344 3.2 11.3 0.00 0.00 0.00 72 1020.1
20260507032511 15 315 1.6 16.1 0.00 0.00 0.00 72 1019.9
20260507032010 15 347 3.2 16.1 0.00 0.00 0.00 72 1019.9
20260507031530 15 341 1.6 16.1 0.00 0.00 0.00 72 1019.7
20260507031010 15 13 3.2 16.1 0.00 0.00 0.00 71 1019.8
20260507030513 15 345 3.2 14.5 0.00 0.00 0.00 71 1019.8
20260507030035 15 290 3.2 14.5 0.00 0.00 0.00 71 1019.7
20260507025512 15 360 1.6 8.0 0.00 0.00 0.00 71 1019.6
20260507025009 15 290 3.2 16.1 0.00 0.00 0.00 70 1019.7
20260507024548 16 328 3.2 16.1 0.00 0.00 0.00 70 1019.6
20260507024009 16 314 3.2 11.3 0.00 0.00 0.00 71 1019.5
20260507023517 16 325 0.0 11.3 0.00 0.00 0.00 70 1019.4
20260507023031 16 338 1.6 12.9 0.00 0.00 0.00 70 1019.4
20260507022511 16 335 1.6 17.7 0.00 0.00 0.00 70 1019.4
20260507022017 16 360 4.8 17.7 0.00 0.00 0.00 70 1019.4
20260507021532 16 350 4.8 17.7 0.00 0.00 0.00 69 1019.4
20260507021013 16 5 3.2 14.5 0.00 0.00 0.00 68 1019.4
20260507020513 16 301 4.8 16.1 0.00 0.00 0.00 68 1019.4
20260507020030 16 298 3.2 16.1 0.00 0.00 0.00 68 1019.5
20260507015514 17 301 4.8 11.3 0.00 0.00 0.00 68 1019.5
20260507015013 17 315 3.2 14.5 0.00 0.00 0.00 68 1019.5
20260507014540 17 338 1.6 19.3 0.00 0.00 0.00 68 1019.6
20260507014011 16 283 4.8 19.3 0.00 0.00 0.00 68 1019.6
20260507013509 17 332 6.4 17.7 0.00 0.00 0.00 67 1019.6
20260507013034 17 270 6.4 17.7 0.00 0.00 0.00 67 1019.6
20260507012512 17 348 4.8 17.7 0.00 0.00 0.00 66 1019.7
20260507012014 17 355 3.2 17.7 0.00 0.00 0.00 65 1019.6
20260507011538 17 5 4.8 17.7 0.00 0.00 0.00 65 1019.6
20260507011011 18 306 4.8 17.7 0.00 0.00 0.00 64 1019.5
20260507010510 18 320 3.2 17.7 0.00 0.00 0.00 63 1019.4
20260507010032 19 28 4.8 19.3 0.00 0.00 0.00 62 1019.5
20260507005515 19 338 1.6 20.9 0.00 0.00 0.00 62 1019.4
20260507005015 19 238 4.8 20.9 0.00 0.00 0.00 62 1019.4
20260507004531 20 0 4.8 20.9 0.00 0.00 0.00 61 1019.3
20260507004014 20 329 4.8 16.1 0.00 0.00 0.00 60 1019.3
20260507003512 20 329 4.8 14.5 0.00 0.00 0.00 60 1019.2
20260507003030 20 355 3.2 14.5 0.00 0.00 0.00 61 1019.2
20260507002513 20 191 4.8 14.5 0.00 0.00 0.00 62 1019.2
20260507002013 20 355 4.8 14.5 0.00 0.00 0.00 61 1019.2
20260507001540 20 284 3.2 14.5 0.00 0.00 0.00 61 1019.1
20260507001010 20 18 1.6 9.7 0.00 0.00 0.00 62 1019.1
20260507000514 20 313 3.2 9.7 0.00 0.00 0.00 62 1019.1
20260507000031 20 292 3.2 16.1 0.00 0.00 0.00 62 1019.2
20260506235515 20 283 1.6 16.1 0.00 0.00 0.00 62 1019.0
20260506235010 20 316 3.2 16.1 0.00 0.00 0.00 63 1018.9
20260506234532 20 340 1.6 11.3 0.00 0.00 0.00 63 1019.1
20260506234014 20 288 1.6 12.9 0.00 0.00 0.00 63 1018.9
20260506233514 20 278 3.2 12.9 0.00 0.00 0.00 63 1018.9
20260506233030 20 298 3.2 12.9 0.00 0.00 0.00 63 1019.0
20260506232516 20 352 3.2 12.9 0.00 0.00 0.00 64 1019.0
20260506232010 21 318 3.2 12.9 0.00 0.00 0.00 62 1019.1
20260506231533 20 0 1.6 12.9 0.00 0.00 0.00 64 1019.0
20260506231014 20 321 1.6 8.0 0.00 0.00 0.00 64 1019.1
20260506230513 20 346 1.6 11.3 0.00 0.00 0.00 63 1019.1
20260506230032 20 288 1.6 12.9 0.00 0.00 0.00 63 1019.1
20260506225511 21 317 3.2 12.9 0.00 0.00 0.00 61 1019.1
20260506225014 21 274 3.2 11.3 0.00 0.00 0.00 59 1019.2
20260506224530 21 5 1.6 8.0 0.00 0.00 0.00 61 1019.3
20260506224012 21 0 1.6 8.0 0.00 0.00 0.00 61 1019.4
20260506223513 21 291 1.6 9.7 0.00 0.00 0.00 62 1019.4
20260506223032 21 52 0.0 9.7 0.00 0.00 0.00 62 1019.5
20260506222514 21 342 1.6 9.7 0.00 0.00 0.00 60 1019.6
20260506222011 21 22 1.6 9.7 0.00 0.00 0.00 60 1019.6
20260506221530 21 56 0.0 4.8 0.00 0.00 0.00 61 1019.6
20260506221010 20 281 1.6 6.4 0.00 0.00 0.00 61 1019.6
20260506220513 21 355 1.6 6.4 0.00 0.00 0.00 59 1019.6
20260506220034 21 0 0.0 6.4 0.00 0.00 0.00 60 1019.7
20260506215514 21 36 1.6 6.4 0.00 0.00 0.00 62 1019.7
20260506215013 20 43 1.6 6.4 0.00 0.00 0.00 64 1019.7
20260506214531 19 0 0.0 6.4 0.00 0.00 0.00 65 1019.7
20260506214012 18 135 3.2 6.4 0.00 0.00 0.00 66 1019.5
20260506213512 18 87 1.6 9.7 0.00 0.00 0.00 68 1019.6
20260506213032 18 64 0.0 9.7 0.00 0.00 0.00 66 1019.6
20260506212513 20 107 1.6 4.8 0.00 0.00 0.00 65 1019.6
20260506212010 19 0 0.0 6.4 0.00 0.00 0.00 64 1019.7
20260506211534 19 360 0.0 6.4 0.00 0.00 0.00 65 1019.7
20260506211014 19 32 3.2 6.4 0.00 0.00 0.00 65 1019.9
20260506210514 18 17 1.6 4.8 0.00 0.00 0.00 67 1019.9
20260506210031 18 94 1.6 6.4 0.00 0.00 0.00 69 1020.0
20260506205515 18 0 1.6 6.4 0.00 0.00 0.00 67 1020.0
20260506205013 18 332 1.6 6.4 0.00 0.00 0.00 68 1020.0
20260506204530 18 0 0.0 6.4 0.00 0.00 0.00 68 1020.0
20260506204015 18 0 0.0 6.4 0.00 0.00 0.00 67 1020.0
20260506203513 19 84 0.0 6.4 0.00 0.00 0.00 65 1020.0
20260506203032 19 86 0.0 4.8 0.00 0.00 0.00 66 1019.9
20260506202511 18 0 0.0 6.4 0.00 0.00 0.00 66 1019.9
20260506202011 18 0 1.6 6.4 0.00 0.00 0.00 68 1020.0
20260506201532 18 323 1.6 6.4 0.00 0.00 0.00 69 1019.9
20260506201012 17 360 1.6 6.4 0.00 0.00 0.00 70 1020.0
20260506200513 17 336 0.0 6.4 0.00 0.00 0.00 70 1020.1
20260506200029 17 346 0.0 6.4 0.00 0.00 0.00 73 1020.2
20260506195513 16 287 3.2 6.4 0.00 0.00 0.00 72 1020.2
20260506195010 16 285 1.6 8.0 0.00 0.00 0.00 74 1020.3
20260506194535 16 292 1.6 8.0 0.00 0.00 0.00 74 1020.4
20260506194014 16 324 1.6 6.4 0.00 0.00 0.00 73 1020.5
20260506193512 16 261 1.6 8.0 0.00 0.00 0.00 74 1020.5
20260506193032 16 275 3.2 8.0 0.00 0.00 0.00 73 1020.6
20260506192513 16 333 1.6 11.3 0.00 0.00 0.00 73 1020.6
20260506192014 16 306 1.6 11.3 0.00 0.00 0.00 73 1020.5
20260506191533 16 0 1.6 6.4 0.00 0.00 0.00 74 1020.5
20260506191010 16 5 1.6 6.4 0.00 0.00 0.00 73 1020.4
20260506190511 16 344 1.6 8.0 0.00 0.00 0.00 73 1020.4
20260506190032 16 308 1.6 8.0 0.00 0.00 0.00 73 1020.4
20260506185511 16 240 1.6 8.0 0.00 0.00 0.00 73 1020.3
20260506185016 16 307 1.6 9.7 0.00 0.00 0.00 73 1020.4
20260506184531 16 32 3.2 9.7 0.00 0.00 0.00 73 1020.3
20260506184013 16 9 0.0 8.0 0.00 0.00 0.00 74 1020.2
20260506183513 16 293 1.6 8.0 0.00 0.00 0.00 74 1020.3
20260506183031 15 340 1.6 8.0 0.00 0.00 0.00 76 1020.3
20260506182512 15 0 0.0 4.8 0.00 0.00 0.00 77 1020.1
20260506182010 15 324 1.6 4.8 0.00 0.00 0.00 76 1020.1
20260506181530 15 325 0.0 4.8 0.00 0.00 0.00 76 1020.3
20260506181011 15 0 0.0 6.4 0.00 0.00 0.00 76 1020.3
20260506180514 15 0 1.6 6.4 0.00 0.00 0.00 76 1020.3
20260506180032 15 23 0.0 4.8 0.00 0.00 0.00 76 1020.3
20260506175511 15 0 0.0 4.8 0.00 0.00 0.00 76 1020.2
20260506175014 15 23 0.0 4.8 0.00 0.00 0.00 76 1020.2
20260506174529 15 24 0.0 6.4 0.00 0.00 0.00 77 1020.3
20260506174014 15 0 1.6 6.4 0.00 0.00 0.00 78 1020.2
20260506173514 14 0 0.0 4.8 0.00 0.00 0.00 79 1020.1
20260506173030 14 0 1.6 4.8 0.00 0.00 0.00 78 1020.1
20260506172517 14 0 0.0 6.4 0.00 0.00 0.00 79 1020.0
20260506172018 14 104 1.6 6.4 0.00 0.00 0.00 79 1020.1
20260506171533 14 0 0.0 4.8 0.00 0.00 0.00 78 1019.9
20260506171015 14 96 0.0 4.8 0.00 0.00 0.00 78 1020.0
20260506170516 14 26 0.0 3.2 0.00 0.00 0.00 77 1020.0
20260506170033 14 0 0.0 3.2 0.00 0.00 0.00 78 1019.9
20260506165514 14 0 1.6 3.2 0.00 0.00 0.00 78 1019.9
20260506165017 14 0 0.0 4.8 0.00 0.00 0.00 78 1020.1
20260506164532 14 0 0.0 4.8 0.00 0.00 0.00 78 1020.2
20260506164018 14 0 0.0 4.8 0.00 0.00 0.00 77 1020.0
20260506163514 14 331 0.0 6.4 0.00 0.00 0.00 78 1020.1
20260506163032 14 321 0.0 8.0 0.00 0.00 0.00 78 1020.1
20260506162517 13 355 1.6 8.0 0.00 0.00 0.00 78 1020.0
20260506162015 14 352 1.6 8.0 0.00 0.00 0.00 78 1020.1
20260506161535 13 0 0.0 3.2 0.00 0.00 0.00 79 1019.9
20260506161016 13 0 0.0 3.2 0.00 0.00 0.00 80 1019.8
20260506160515 13 0 0.0 3.2 0.00 0.00 0.00 80 1019.7
20260506160032 13 360 0.0 4.8 0.00 0.00 0.00 80 1019.8
20260506155515 13 0 0.0 4.8 0.00 0.03 0.00 80 1019.7
20260506155015 13 0 0.0 4.8 0.00 0.03 0.00 81 1019.5
20260506154532 13 0 0.0 4.8 0.00 0.03 0.00 80 1019.5
20260506154015 13 0 0.0 6.4 0.00 0.03 0.00 79 1019.4
20260506153514 13 0 0.0 6.4 0.00 0.03 0.00 80 1019.3
20260506153040 13 0 0.0 4.8 0.00 0.03 0.00 81 1019.3
20260506152515 13 57 0.0 4.8 0.00 0.03 0.00 81 1019.5
20260506152016 13 0 0.0 4.8 0.00 0.03 0.00 81 1019.9
20260506151531 13 0 0.0 6.4 0.00 0.03 0.00 81 1020.0
20260506151014 13 0 0.0 8.0 0.00 0.03 0.00 81 1020.1
20260506150515 13 304 0.0 8.0 0.00 0.03 0.00 81 1020.1
20260506150030 13 347 0.0 8.0 0.00 0.03 0.00 81 1020.0
20260506145519 13 0 0.0 8.0 0.00 0.05 0.00 81 1020.0
20260506145016 13 326 1.6 8.0 0.00 0.05 0.00 82 1020.0
20260506144550 13 5 1.6 8.0 0.00 0.05 0.00 82 1020.0
20260506144011 13 329 0.0 9.7 0.00 0.05 0.00 82 1019.7
20260506143513 13 0 1.6 9.7 0.00 0.05 0.00 81 1019.8
20260506143030 13 5 1.6 6.4 0.00 0.05 0.00 81 1019.8
20260506142514 13 36 0.0 6.4 0.00 0.05 0.00 82 1019.6
20260506142013 13 347 0.0 6.4 0.00 0.05 0.00 82 1019.5
20260506141529 13 0 1.6 6.4 0.00 0.05 0.00 82 1019.3
20260506141017 13 0 0.0 6.4 0.00 0.05 0.00 82 1019.1
20260506140513 13 0 0.0 3.2 0.00 0.05 0.00 82 1019.1
20260506140043 13 0 0.0 4.8 0.00 0.05 0.00 82 1019.1
20260506135512 13 346 0.0 4.8 0.00 0.05 0.00 82 1019.2
20260506135016 13 0 0.0 8.0 0.00 0.05 0.00 82 1019.1
20260506134535 13 0 1.6 8.0 0.00 0.05 0.00 82 1019.1
20260506134017 13 339 0.0 6.4 0.00 0.05 0.00 82 1019.0
20260506133510 13 0 1.6 6.4 0.00 0.05 0.00 82 1019.1
20260506133032 13 343 1.6 6.4 0.00 0.05 0.00 82 1018.9
20260506132514 13 0 0.0 6.4 0.00 0.05 0.00 82 1019.0
20260506132012 13 0 0.0 6.4 0.00 0.05 0.00 82 1018.9
20260506131538 13 0 0.0 6.4 0.00 0.05 0.00 82 1018.8
20260506131013 13 338 1.6 4.8 0.00 0.05 0.00 82 1018.7
20260506130513 13 0 0.0 3.2 0.00 0.05 0.00 82 1018.6
20260506130030 13 0 0.0 3.2 0.00 0.05 0.00 82 1018.6
20260506125513 13 0 0.0 3.2 0.00 0.05 0.00 82 1018.6
20260506125013 13 0 0.0 3.2 0.00 0.05 0.00 82 1018.5
20260506124530 13 0 0.0 3.2 0.00 0.05 0.00 82 1018.5
20260506124013 13 0 0.0 3.2 0.00 0.05 0.00 82 1018.4
20260506123511 13 0 0.0 3.2 0.00 0.05 0.00 82 1018.5
20260506123038 13 0 0.0 3.2 0.00 0.05 0.00 82 1018.4
20260506122511 13 0 0.0 3.2 0.00 0.05 0.00 82 1018.4
20260506122012 13 0 0.0 3.2 0.00 0.05 0.00 82 1018.5
20260506121530 13 0 0.0 6.4 0.00 0.05 0.00 82 1018.5
20260506121013 13 0 0.0 6.4 0.00 0.05 0.00 82 1018.5
20260506120510 13 0 1.6 6.4 0.00 0.05 0.00 82 1018.5
20260506120034 13 0 0.0 3.2 0.00 0.05 0.00 81 1018.5
20260506115514 13 0 0.0 6.4 0.00 0.05 0.00 81 1018.4
20260506115012 13 0 0.0 6.4 0.00 0.05 0.00 81 1018.4
20260506114530 13 360 1.6 6.4 0.00 0.05 0.00 81 1018.4
20260506114016 13 317 0.0 4.8 0.00 0.05 0.00 81 1018.3
20260506113513 13 0 0.0 4.8 0.00 0.05 0.00 81 1018.3
20260506113036 13 0 1.6 4.8 0.00 0.05 0.00 81 1018.2
20260506112513 13 0 0.0 3.2 0.00 0.05 0.00 81 1018.2
20260506112010 13 0 0.0 6.4 0.00 0.05 0.00 81 1018.2
20260506111534 13 360 1.6 6.4 0.00 0.05 0.00 81 1018.2
20260506111015 13 258 0.0 4.8 0.00 0.05 0.00 81 1018.0
20260506110515 13 0 0.0 4.8 0.00 0.05 0.00 81 1017.9